TimeCST,TemperatureF,Dew PointF,Humidity,Sea Level PressureIn,VisibilityMPH,Wind Direction,Wind SpeedMPH,Gust SpeedMPH,PrecipitationIn,Events,Conditions,WindDirDegrees,DateUTC
12:15 AM,50.0,48.2,94,30.01,7.0,North,5.8,-,0.05,Rain,Rain,350,2013-01-09 06:15:00
12:35 AM,50.0,48.2,94,29.99,10.0,North,9.2,-,0.07,Rain,Light Rain,360,2013-01-09 06:35:00
12:55 AM,41.0,41.0,100,30.00,10.0,North,6.9,-,0.10,Rain,Rain,360,2013-01-09 06:55:00
1:15 AM,39.2,37.4,93,29.98,7.0,North,9.2,-,0.05,Rain,Rain,350,2013-01-09 07:15:00
1:35 AM,41.0,41.0,100,29.99,10.0,North,8.1,-,0.06,Rain,Light Rain,10,2013-01-09 07:35:00
2:15 AM,24.8,23.0,93,30.03,7.0,ENE,8.1,-,0.06,Rain,Freezing Rain,60,2013-01-09 08:15:00
2:35 AM,6.8,5.0,92,30.01,5.0,NNE,10.4,-,0.16,Rain,Freezing Rain,20,2013-01-09 08:35:00
2:55 AM,-4.0,-5.8,92,30.01,7.0,North,9.2,-,0.23,Rain,Freezing Rain,10,2013-01-09 08:55:00
3:15 AM,-14.8,-14.8,100,30.01,10.0,North,12.7,17.3,0.05,Rain,Freezing Rain,10,2013-01-09 09:15:00
3:35 AM,-5.8,-5.8,100,30.01,7.0,North,11.5,18.4,0.09,Rain,Freezing Rain,10,2013-01-09 09:35:00
3:55 AM,-13.0,-14.8,92,30.00,5.0,North,10.4,18.4,0.17,Rain,Freezing Rain,10,2013-01-09 09:55:00
4:15 AM,-23.8,-25.6,91,29.99,7.0,North,15.0,20.7,0.04,Rain,Freezing Rain,10,2013-01-09 10:15:00
4:35 AM,-27.4,-27.4,100,29.97,7.0,North,15.0,21.9,0.11,Rain,Freezing Rain,360,2013-01-09 10:35:00
4:55 AM,-22.0,-23.8,91,29.97,10.0,NNE,12.7,19.6,0.12,Rain,Freezing Rain,20,2013-01-09 10:55:00
5:15 AM,-2.2,-4.0,92,29.98,10.0,NNE,13.8,21.9,N/A,Rain,Freezing Rain,20,2013-01-09 11:15:00
5:35 AM,10.4,10.4,100,29.98,10.0,NNE,10.4,17.3,0.02,Rain,Freezing Rain,20,2013-01-09 11:35:00
5:55 AM,15.8,14.0,93,29.97,10.0,North,9.2,-,0.03,Rain,Freezing Rain,10,2013-01-09 11:55:00
6:15 AM,17.6,14.0,86,29.98,10.0,NNE,10.4,-,N/A,,Freezing Rain,20,2013-01-09 12:15:00
6:35 AM,12.2,10.4,92,29.99,10.0,NNE,8.1,-,N/A,,Freezing Rain,20,2013-01-09 12:35:00
7:15 AM,123.8,120.2,90,29.99,10.0,NNE,10.4,-,0.01,Rain,Rain,20,2013-01-09 13:15:00
7:35 AM,-9999,-9999,N/A,30.00,7.0,NNE,11.5,-,0.05,Rain,Rain,30,2013-01-09 13:35:00
7:55 AM,-9999,-9999,N/A,30.02,5.0,NNE,15.0,20.7,0.11,Rain,Rain,20,2013-01-09 13:55:00
8:15 AM,41.0,41.0,100,30.01,7.0,NNE,12.7,26.5,0.03,Rain,Rain,20,2013-01-09 14:15:00
8:35 AM,44.6,42.8,93,30.01,10.0,NNE,15.0,24.2,0.04,Rain,Rain,20,2013-01-09 14:35:00
8:55 AM,57.2,55.4,94,30.02,7.0,North,11.5,18.4,0.06,Rain,Rain,360,2013-01-09 14:55:00
9:15 AM,42.8,41.0,93,30.03,10.0,North,10.4,17.3,0.01,Rain,Rain,360,2013-01-09 15:15:00
9:35 AM,46.4,44.6,93,30.02,10.0,North,9.2,-,0.01,Rain,Light Rain,360,2013-01-09 15:35:00
10:15 AM,50.0,48.2,94,30.00,7.0,North,11.5,-,0.01,Rain,Rain,360,2013-01-09 16:15:00
10:35 AM,50.0,48.2,94,30.00,7.0,North,9.2,-,0.02,Rain,Heavy Rain,360,2013-01-09 16:35:00
11:15 AM,50.0,48.2,94,29.98,5.0,North,10.4,-,0.02,Rain,Heavy Rain,350,2013-01-09 17:15:00
11:35 AM,50.0,48.2,94,29.97,3.0,North,8.1,-,0.07,Rain,Rain,350,2013-01-09 17:35:00
11:55 AM,50.0,48.2,94,29.99,2.5,NNW,4.6,-,0.11,Rain,Rain,340,2013-01-09 17:55:00
12:15 PM,50.0,48.2,94,29.98,2.5,WNW,3.5,-,0.05,Rain,Rain,300,2013-01-09 18:15:00
12:35 PM,50.0,48.2,94,29.97,4.0,West,5.8,-,0.13,Rain,Rain,270,2013-01-09 18:35:00
12:55 PM,50.0,48.2,94,29.97,2.5,West,5.8,-,0.18,Rain,Heavy Rain,270,2013-01-09 18:55:00
1:15 PM,50.0,50.0,100,29.97,4.0,West,3.5,-,0.04,Rain,Rain,280,2013-01-09 19:15:00
1:35 PM,51.8,50.0,94,29.96,3.0,West,5.8,-,0.06,Rain,Rain,280,2013-01-09 19:35:00
1:55 PM,51.8,50.0,94,29.93,2.5,NNW,8.1,-,0.08,,Heavy Drizzle,330,2013-01-09 19:55:00
2:15 PM,51.8,51.8,100,29.84,10.0,North,17.3,21.9,N/A,Rain,Light Rain,350,2013-01-09 20:15:00
2:35 PM,53.6,51.8,94,29.85,10.0,North,11.5,18.4,N/A,,Scattered Clouds,10,2013-01-09 20:35:00
2:55 PM,53.6,53.6,100,29.84,10.0,North,11.5,20.7,N/A,,Scattered Clouds,10,2013-01-09 20:55:00
3:15 PM,53.6,53.6,100,29.87,10.0,North,10.4,-,N/A,,Overcast,10,2013-01-09 21:15:00
3:35 PM,53.6,53.6,100,29.89,10.0,Calm,Calm,-,N/A,,Overcast,0,2013-01-09 21:35:00
3:55 PM,53.6,53.6,100,29.91,2.5,Calm,Calm,-,N/A,Rain,Rain,0,2013-01-09 21:55:00
4:15 PM,53.6,53.6,100,29.89,1.5,Calm,Calm,-,N/A,,Drizzle,0,2013-01-09 22:15:00
4:35 PM,50.0,50.0,100,29.92,1.8,Calm,Calm,-,N/A,,Light Drizzle,0,2013-01-09 22:35:00
4:55 PM,53.6,53.6,100,29.92,1.2,Calm,Calm,-,N/A,,Overcast,0,2013-01-09 22:55:00
5:15 PM,53.6,53.6,100,29.93,0.8,Calm,Calm,-,N/A,,Overcast,0,2013-01-09 23:15:00
5:35 PM,55.4,53.6,94,29.95,1.2,SSW,3.5,-,0.01,,Overcast,210,2013-01-09 23:35:00
5:55 PM,60.8,60.8,100,29.95,1.8,Calm,Calm,-,0.01,,Overcast,0,2013-01-09 23:55:00
6:15 PM,51.8,50.0,94,29.96,10.0,SSW,4.6,-,N/A,,Overcast,210,2013-01-10 00:15:00
6:35 PM,51.8,51.8,100,29.97,10.0,SW,5.8,-,N/A,,Overcast,220,2013-01-10 00:35:00
6:55 PM,53.6,51.8,94,29.97,10.0,SW,8.1,-,N/A,,Overcast,230,2013-01-10 00:55:00
7:15 PM,53.6,51.8,94,29.97,10.0,SW,5.8,-,N/A,,Overcast,230,2013-01-10 01:15:00
7:35 PM,51.8,51.8,100,29.97,10.0,Calm,Calm,-,N/A,,Overcast,0,2013-01-10 01:35:00
7:55 PM,51.8,51.8,100,29.97,10.0,Calm,Calm,-,N/A,,Overcast,0,2013-01-10 01:55:00
8:35 PM,53.6,53.6,100,29.97,10.0,Calm,Calm,-,N/A,,Overcast,0,2013-01-10 02:35:00
8:55 PM,51.8,51.8,100,29.97,5.0,Calm,Calm,-,N/A,,Overcast,0,2013-01-10 02:55:00
9:15 PM,51.8,50.0,94,29.97,5.0,Calm,Calm,-,N/A,,Overcast,0,2013-01-10 03:15:00
9:35 PM,51.8,51.8,100,29.97,7.0,Calm,Calm,-,N/A,Rain,Light Rain,0,2013-01-10 03:35:00
9:55 PM,51.8,51.8,100,29.98,10.0,Calm,Calm,-,N/A,,Overcast,0,2013-01-10 03:55:00
10:15 PM,51.8,51.8,100,29.98,7.0,Calm,Calm,-,N/A,,Mostly Cloudy,0,2013-01-10 04:15:00
10:35 PM,51.8,51.8,100,30.00,5.0,SSE,3.5,-,N/A,,Overcast,150,2013-01-10 04:35:00
10:55 PM,51.8,51.8,100,30.00,4.0,Calm,Calm,-,N/A,,Overcast,0,2013-01-10 04:55:00
11:15 PM,51.8,51.8,100,29.99,3.0,Calm,Calm,-,N/A,,Mostly Cloudy,0,2013-01-10 05:15:00
11:35 PM,50.0,48.2,94,30.00,0.5,Calm,Calm,-,N/A,Fog,Fog,0,2013-01-10 05:35:00
11:55 PM,50.0,50.0,100,30.00,1.0,Calm,Calm,-,N/A,,Mostly Cloudy,0,2013-01-10 05:55:00